User: anonymous   Login
Location: Notre Dame Regional High School Observatory
(37.3056°N, 89.6097°W)
Time: 22:06:49
(UTC-05:00)
Language:

ATLAS 3B R/B - Orbit

View from above orbital plane
View from above orbital plane
View from above satellite
View from above satellite

Ground track
Ground track

The orbit data is extracted from the following two-line orbital elements,

1 28538U 05004B   15105.89243812 0.00000100  00000-0  15510-3 0    03
2 28538  63.8210 136.8506 0201000 229.2115 130.7885 13.43057506    08
Epoch (UTC): 15 April 2015 21:25:06
Eccentricity: 0.0201000
inclination: 63.8210°
perigee height: 947 km
apogee height: 1248 km
right ascension of ascending node: 136.8506°
argument of perigee: 229.2115°
revolutions per day: 13.43057506
mean anomaly at epoch: 130.7885°
orbit number at epoch: 0

The dashed part of the orbit path shows where the satellite is in the earth's shadow,  

DLR